Location: Haliburton Scout Reserve
(45.0900°N, 78.3200°W)
Time: 12:06:34
(UTC-05:00)

A-11 Canister half - All Passes

Search period start: 07 February 2023 00:00
Search period end: 17 February 2023 00:00
Orbit: 1514 x 1686 km, 47.2° (Epoch: 06 February)

Date Brightness Start Highest point End Pass type
(mag) Time Alt. Az. Time Alt. Az. Time Alt. Az.
07 Feb - 07:46:48 10° SSE 07:52:52 18° SE 07:58:50 10° E daylight
07 Feb - 09:46:44 10° SW 09:56:16 55° SE 10:05:29 10° ENE daylight
07 Feb - 11:51:11 10° WSW 12:01:01 85° NNW 12:10:28 10° ENE daylight
07 Feb - 13:56:43 10° WNW 14:06:22 84° NNE 14:15:42 10° E daylight
07 Feb - 16:01:55 10° WNW 16:11:03 57° SW 16:19:58 10° SE daylight
07 Feb - 18:08:36 10° W 18:14:18 18° SW 18:19:59 10° SSW visible
08 Feb - 07:24:23 10° SSE 07:30:02 17° SE 07:35:35 10° E daylight
08 Feb - 09:23:52 10° SW 09:33:22 53° SE 09:42:32 10° ENE daylight
08 Feb - 11:28:11 10° WSW 11:38:02 86° NNW 11:47:32 10° ENE daylight
08 Feb - 13:33:44 10° W 13:43:24 83° N 13:52:46 10° E daylight
08 Feb - 15:38:57 10° WNW 15:48:09 59° SSW 15:57:08 10° SE daylight
08 Feb - 17:45:23 10° W 17:51:29 20° SW 17:57:34 10° S visible
09 Feb - 07:02:03 10° SSE 07:07:12 15° SE 07:12:16 10° E daylight
09 Feb - 09:01:01 10° SW 09:10:28 50° SE 09:19:35 10° ENE daylight
09 Feb - 11:05:11 10° WSW 11:15:04 88° NNW 11:24:36 10° ENE daylight
09 Feb - 13:10:44 10° W 13:20:27 82° N 13:29:49 10° E daylight
09 Feb - 15:15:59 10° WNW 15:25:15 62° SSW 15:34:18 10° SE daylight
09 Feb - 17:22:12 10° W 17:28:40 21° SW 17:35:05 10° S daylight
10 Feb - 06:39:50 10° SSE 06:44:22 14° ESE 06:48:51 10° E visible
10 Feb - 08:38:10 10° SSW 08:47:33 48° SE 08:56:37 10° ENE daylight
10 Feb - 10:42:11 10° WSW 10:52:06 89° NNW 11:01:40 10° ENE daylight
10 Feb - 12:47:43 10° W 12:57:28 81° N 13:06:52 10° E daylight
10 Feb - 14:53:00 10° WNW 15:02:22 65° SSW 15:11:27 10° SE daylight
10 Feb - 16:59:04 10° W 17:05:51 23° SW 17:12:34 10° S daylight
11 Feb - 06:17:44 10° SE 06:21:33 13° ESE 06:25:19 10° E visible
11 Feb - 08:15:21 10° SSW 08:24:39 46° SE 08:33:40 10° ENE daylight
11 Feb - 10:19:12 10° WSW 10:29:08 89° SSE 10:38:44 10° ENE daylight
11 Feb - 12:24:43 10° W 12:34:30 80° N 12:43:55 10° E daylight
11 Feb - 14:30:01 10° WNW 14:39:27 67° SSW 14:48:36 10° SE daylight
11 Feb - 16:35:57 10° W 16:43:02 25° SW 16:50:02 10° S daylight
12 Feb - 05:55:53 10° SE 05:58:43 11° ESE 06:01:32 10° ESE visible
12 Feb - 07:52:32 10° SSW 08:01:45 43° SE 08:10:42 10° ENE daylight
12 Feb - 09:56:13 10° WSW 10:06:11 87° SSE 10:15:47 10° ENE daylight
12 Feb - 12:01:43 10° W 12:11:32 80° N 12:20:59 10° E daylight
12 Feb - 14:07:02 10° WNW 14:16:32 70° SSW 14:25:44 10° SE daylight
12 Feb - 16:12:51 10° W 16:20:12 27° SW 16:27:26 10° S daylight
13 Feb - 05:34:49 10° SE 05:35:54 10° ESE 05:36:59 10° ESE visible
13 Feb - 07:29:44 10° SSW 07:38:51 41° SE 07:47:43 10° ENE daylight
13 Feb - 09:33:13 10° WSW 09:43:13 85° SSE 09:52:51 10° ENE daylight
13 Feb - 11:38:43 10° W 11:48:33 79° N 11:58:01 10° E daylight
13 Feb - 13:44:03 10° WNW 13:53:38 72° SSW 14:02:52 10° SE daylight
13 Feb - 15:49:46 10° WNW 15:57:22 29° SW 16:04:50 10° S daylight
14 Feb - 07:06:57 10° SSW 07:15:57 39° SE 07:24:43 10° ENE daylight
14 Feb - 09:10:15 10° WSW 09:20:15 83° SSE 09:29:54 10° ENE daylight
14 Feb - 11:15:42 10° W 11:25:34 79° N 11:35:04 10° E daylight
14 Feb - 13:21:05 10° WNW 13:30:42 75° SSW 13:39:59 10° ESE daylight
14 Feb - 15:26:41 10° WNW 15:34:32 30° SW 15:42:12 10° S daylight
15 Feb - 06:44:11 10° SSW 06:53:04 37° SE 07:01:44 10° ENE visible
15 Feb - 08:47:16 10° WSW 08:57:18 81° SSE 09:06:58 10° ENE daylight
15 Feb - 10:52:40 10° W 11:02:36 79° N 11:12:07 10° E daylight
15 Feb - 12:58:05 10° WNW 13:07:46 77° SSW 13:17:05 10° ESE daylight
15 Feb - 15:03:38 10° WNW 15:11:41 33° SW 15:19:33 10° SSE daylight
16 Feb - 06:21:26 10° SSW 06:30:10 35° SE 06:38:43 10° ENE visible
16 Feb - 08:24:18 10° WSW 08:34:20 79° SSE 08:44:01 10° ENE daylight
16 Feb - 10:29:39 10° W 10:39:36 79° N 10:49:10 10° E daylight
16 Feb - 12:35:06 10° WNW 12:44:50 80° SSW 12:54:11 10° ESE daylight
16 Feb - 14:40:35 10° WNW 14:48:50 35° SW 14:56:54 10° SSE daylight
